• Processing (Info)

  • MPEC 2017-S154: 2016 AU130

    The following Minor Planet Electronic Circular may be linked-to from your own Web pages, but must not otherwise be redistributed electronically.

    A form allowing access to any MPEC is at the bottom of this page.


    Read MPEC 2017-S153 Read MPEC 2017-S155


    M.P.E.C. 2017-S154                               Issued 2017 Sept. 26, 18:16 UT
    
         The Minor Planet Electronic Circulars contain information on unusual
             minor planets and routine data on comets.  They are published
        on behalf of Division F of the International Astronomical Union by the
              Minor Planet Center, Smithsonian Astrophysical Observatory,
                              Cambridge, MA 02138, U.S.A.
    
                 Prepared using the Tamkin Foundation Computer Network
    
                                  MPC@CFA.HARVARD.EDU
                URL https://www.minorplanetcenter.net/    ISSN 1523-6714
    
                                      2016 AU130
    
    Additional Observations:
         K16AD0U  C2017 09 03.60972 04 07 23.921-37 22 53.92         21.2 wLES154F51
         K16AD0U  C2017 09 03.61488 04 07 24.290-37 23 00.40         21.2 wLES154F51
         K16AD0U  C2017 09 03.62003 04 07 24.657-37 23 06.82         21.2 wLES154F51
         K16AD0U  C2017 09 24.57746 04 20 37.259-43 59 58.35         20.2 wLES154F51
         K16AD0U  C2017 09 24.58533 04 20 37.199-44 00 06.22         20.2 wLES154F51
         K16AD0U  C2017 09 24.59309 04 20 37.129-44 00 13.85         20.4 wLES154F51
         K16AD0U _C2017 09 25.59885204 20 31.517-44 16 32.42         20.3 GUES154568
         K16AD0U _C2017 09 25.59979504 20 31.509-44 16 33.29         20.4 GUES154568
         K16AD0U _C2017 09 25.60073804 20 31.494-44 16 34.23         20.3 GUES154568
         K16AD0U |C2017 09 26.38364 04 20 24.18 -44 28 55.3          21.1 VuES154807
         K16AD0U |C2017 09 26.38546 04 20 24.13 -44 28 57.1          20.7 VuES154807
         K16AD0U |C2017 09 26.38730 04 20 24.11 -44 28 58.7          20.7 VuES154807
    
    Observer details:
    568 Mauna Kea.  Observers R. J. Wainscoat, L. Wells.  Measurers M. Micheli,
        R. J. Wainscoat.  3.6-m Canada-France-Hawaii Telescope + CCD.
    807 Cerro Tololo.  Observers T. Linder, R. Holmes.  0.61-m f/6.5 astrograph
        + CCD.
    F51 Pan-STARRS 1, Haleakala.  Observers J. Bulger, T. Lowe, A. Schultz,
        M. Willman.  Measurers K. Chambers, S. Chastel, L. Denneau, H. Flewelling,
        M. Huber, E. Lilly, E. Magnier, R. Wainscoat, C. Waters, R. Weryk.  1.8-m
        Ritchey-Chretien + CCD.
    
    Orbital elements:
    2016 AU130                                               Earth MOID = 0.2270 AU
    Epoch 2017 Sept. 4.0 TT = JDT 2458000.5                 MPC
    M  49.47554              (2000.0)            P               Q
    n   0.46216630     Peri.  171.55742     +0.33917540     +0.81348467
    a   1.6568017      Node   117.06070     -0.89111601     +0.43876511
    e   0.2510998      Incl.   32.04075     -0.30145035     -0.38174320
    P   2.13           H   18.5           G   0.15           U   3
    Residuals in seconds of arc
    160111 F51  0.0   0.2-    160113 291  0.5-  0.9+    170925 568  0.1+  0.0
    160111 F51  0.1+  0.2-    160113 291  0.1-  0.1-    170925 568  0.1+  0.0
    160111 F51  0.0   0.0     170903 F51  0.0   0.0     170925 568  0.1+  0.0
    160111 F51  0.2+  0.1+    170903 F51  0.0   0.0     170926 807  0.1+  0.0
    160112 291  0.0   0.4-    170903 F51  0.0   0.1+    170926 807  0.1-  0.0
    160112 291  0.2+  0.1-    170924 F51  0.1-  0.0     170926 807  0.0   0.1+
    160112 291  0.1+  0.1+    170924 F51  0.0   0.1-
    160113 291  0.2-  0.2+    170924 F51  0.0   0.0
    
    Ephemeris:
    2016 AU130               a,e,i = 1.66, 0.25, 32                  q = 1.2408
    Date    TT    R. A. (2000) Decl.     Delta      r     Elong.  Phase     V
    2017 08 27    03 56 07.3 -34 40 45   0.8442  1.4362   101.1    43.7    20.6
    ...
    2017 09 11    04 15 12.6 -39 52 34   0.8669  1.4865   104.8    40.9    20.7
    ...
    2017 09 19    04 19 52.5 -42 23 44   0.8799  1.5140   106.7    39.5    20.7
    ...
    2017 09 25    04 20 35.3 -44 06 42   0.8900  1.5347   108.2    38.4    20.7
    2017 09 26    04 20 28.1 -44 22 47   0.8918  1.5382   108.4    38.2    20.7
    2017 09 27    04 20 16.8 -44 38 32   0.8935  1.5416   108.7    38.0    20.7
    ...
    2017 10 03    04 17 42.8 -46 04 56   0.9044  1.5624   110.1    37.0    20.7
    ...
    2017 10 11    04 10 33.4 -47 34 42   0.9201  1.5901   111.9    35.6    20.8
    ...
    2017 10 26    03 47 30.5 -48 38 27   0.9558  1.6414   114.6    33.4    20.9
    
    A. U. Tomatic                (C) Copyright 2017 MPC           M.P.E.C. 2017-S154
    

    Read MPEC 2017-S153 Read MPEC 2017-S155


    MPEC number:

    Enter an MPEC number in one of the following forms:

    • 1997-B01 (the full form)
    • J97B01 (the packed version of the full form)
    • B01 (the abbreviated form)